TimeEST,TemperatureF,Dew PointF,Humidity,Sea Level PressureIn,VisibilityMPH,Wind Direction,Wind SpeedMPH,Gust SpeedMPH,PrecipitationIn,Events,Conditions,WindDirDegrees,DateUTC
12:15 AM,30.2,28.4,93,30.13,10.0,WNW,13.8,18.4,N/A,,Overcast,290,2013-01-14 05:15:00
12:35 AM,28.4,26.6,93,30.14,10.0,WNW,17.3,24.2,N/A,,Overcast,300,2013-01-14 05:35:00
12:55 AM,28.4,26.6,93,30.15,10.0,WNW,13.8,19.6,N/A,,Overcast,290,2013-01-14 05:55:00
1:15 AM,28.4,26.6,93,30.16,10.0,NW,16.1,-,N/A,,Overcast,310,2013-01-14 06:15:00
1:35 AM,26.6,26.6,100,30.17,10.0,WNW,13.8,18.4,N/A,,Overcast,290,2013-01-14 06:35:00
1:55 AM,26.6,23.0,86,30.18,10.0,WNW,12.7,-,N/A,,Overcast,300,2013-01-14 06:55:00
2:15 AM,26.6,23.0,86,30.20,10.0,NW,17.3,-,N/A,,Overcast,310,2013-01-14 07:15:00
2:35 AM,26.6,23.0,86,30.21,10.0,NW,13.8,18.4,N/A,,Overcast,320,2013-01-14 07:35:00
2:55 AM,24.8,23.0,93,30.22,10.0,WNW,11.5,-,N/A,,Overcast,290,2013-01-14 07:55:00
3:55 AM,23.0,21.2,93,30.25,10.0,West,12.7,-,N/A,,Overcast,280,2013-01-14 08:55:00
4:15 AM,23.0,21.2,93,30.25,10.0,NW,12.7,17.3,N/A,,Overcast,310,2013-01-14 09:15:00
4:35 AM,23.0,23.0,100,30.25,10.0,NW,11.5,17.3,N/A,,Overcast,310,2013-01-14 09:35:00
4:55 AM,23.0,21.2,93,30.26,10.0,NW,15.0,-,N/A,,Overcast,310,2013-01-14 09:55:00
5:15 AM,23.0,21.2,93,30.26,10.0,NW,12.7,19.6,N/A,,Overcast,310,2013-01-14 10:15:00
5:35 AM,23.0,21.2,93,30.26,10.0,NW,10.4,-,N/A,,Overcast,310,2013-01-14 10:35:00
5:55 AM,23.0,21.2,93,30.27,10.0,WNW,10.4,-,N/A,,Overcast,290,2013-01-14 10:55:00
6:35 AM,21.2,19.4,93,30.29,10.0,NNW,10.4,-,N/A,,Overcast,340,2013-01-14 11:35:00
6:55 AM,21.2,21.2,100,30.30,10.0,NNW,10.4,-,N/A,,Overcast,330,2013-01-14 11:55:00
7:15 AM,21.2,19.4,93,30.31,10.0,NW,11.5,-,N/A,,Overcast,310,2013-01-14 12:15:00
7:35 AM,21.2,19.4,93,30.32,10.0,NW,6.9,-,N/A,,Overcast,310,2013-01-14 12:35:00
7:55 AM,21.2,19.4,93,30.33,10.0,NW,9.2,-,N/A,,Overcast,320,2013-01-14 12:55:00
8:15 AM,21.2,19.4,93,30.34,10.0,NNW,5.8,-,N/A,,Overcast,330,2013-01-14 13:15:00
8:55 AM,21.2,19.4,93,30.37,10.0,WNW,5.8,-,N/A,,Overcast,290,2013-01-14 13:55:00
9:15 AM,21.2,19.4,93,30.38,10.0,NNW,6.9,-,N/A,,Overcast,330,2013-01-14 14:15:00
9:35 AM,21.2,19.4,93,30.39,10.0,NNW,8.1,-,N/A,,Overcast,340,2013-01-14 14:35:00
9:55 AM,21.2,19.4,93,30.39,10.0,NNW,5.8,-,N/A,,Overcast,340,2013-01-14 14:55:00
10:15 AM,21.2,19.4,93,30.39,10.0,NNW,6.9,-,N/A,,Overcast,340,2013-01-14 15:15:00
10:35 AM,21.2,19.4,93,30.38,10.0,North,8.1,-,N/A,,Overcast,360,2013-01-14 15:35:00
10:55 AM,21.2,17.6,86,30.38,10.0,NNW,3.5,-,N/A,,Overcast,340,2013-01-14 15:55:00
11:15 AM,21.2,17.6,86,30.37,10.0,Calm,Calm,-,N/A,,Overcast,0,2013-01-14 16:15:00
11:35 AM,21.2,17.6,86,30.35,10.0,East,4.6,-,N/A,,Overcast,80,2013-01-14 16:35:00
11:55 AM,21.2,19.4,93,30.34,10.0,North,4.6,-,N/A,,Overcast,10,2013-01-14 16:55:00
12:15 PM,21.2,19.4,93,30.32,10.0,North,3.5,-,N/A,,Overcast,10,2013-01-14 17:15:00
12:35 PM,21.2,19.4,93,30.35,10.0,North,3.5,-,N/A,,Overcast,10,2013-01-14 17:35:00
12:55 PM,21.2,19.4,93,30.37,10.0,NW,5.8,-,N/A,,Overcast,320,2013-01-14 17:55:00
1:15 PM,21.2,19.4,93,30.35,10.0,NNW,5.8,-,N/A,,Overcast,330,2013-01-14 18:15:00
1:35 PM,21.2,17.6,86,30.35,10.0,NNW,6.9,-,N/A,,Overcast,330,2013-01-14 18:35:00
1:55 PM,23.0,19.4,86,30.35,10.0,NNW,5.8,-,N/A,,Overcast,330,2013-01-14 18:55:00
2:15 PM,23.0,19.4,86,30.35,10.0,NW,8.1,-,N/A,,Overcast,320,2013-01-14 19:15:00
2:35 PM,23.0,19.4,86,30.36,10.0,North,9.2,-,N/A,,Overcast,350,2013-01-14 19:35:00
2:55 PM,23.0,19.4,86,30.37,10.0,NNW,11.5,-,N/A,,Overcast,330,2013-01-14 19:55:00
3:15 PM,23.0,19.4,86,30.37,10.0,North,10.4,-,N/A,,Overcast,350,2013-01-14 20:15:00
3:35 PM,23.0,19.4,86,30.39,10.0,NNW,8.1,-,N/A,,Mostly Cloudy,330,2013-01-14 20:35:00
3:55 PM,23.0,19.4,86,30.41,10.0,NW,6.9,-,N/A,,Overcast,320,2013-01-14 20:55:00
4:35 PM,23.0,19.4,86,30.42,10.0,NNW,10.4,-,N/A,,Mostly Cloudy,330,2013-01-14 21:35:00
4:55 PM,23.0,19.4,86,30.41,10.0,NNW,8.1,-,N/A,,Overcast,340,2013-01-14 21:55:00
5:15 PM,23.0,19.4,86,30.38,10.0,North,8.1,-,N/A,,Overcast,10,2013-01-14 22:15:00
5:35 PM,23.0,19.4,86,30.37,10.0,North,9.2,-,N/A,,Overcast,10,2013-01-14 22:35:00
5:55 PM,23.0,19.4,86,30.40,10.0,North,6.9,-,N/A,,Overcast,360,2013-01-14 22:55:00
6:15 PM,23.0,19.4,86,30.40,10.0,North,8.1,-,N/A,,Overcast,360,2013-01-14 23:15:00
6:35 PM,23.0,19.4,86,30.39,10.0,NNE,6.9,-,N/A,,Overcast,20,2013-01-14 23:35:00
6:55 PM,23.0,19.4,86,30.38,10.0,NNE,5.8,-,N/A,,Overcast,30,2013-01-14 23:55:00
7:15 PM,23.0,19.4,86,30.37,10.0,NNE,5.8,-,N/A,,Overcast,20,2013-01-15 00:15:00
7:35 PM,23.0,19.4,86,30.37,10.0,NNE,6.9,-,N/A,,Overcast,30,2013-01-15 00:35:00
7:55 PM,23.0,21.2,93,30.37,10.0,NNE,5.8,-,N/A,,Overcast,20,2013-01-15 00:55:00
8:15 PM,23.0,21.2,93,30.37,10.0,NNE,4.6,-,N/A,,Overcast,20,2013-01-15 01:15:00
8:35 PM,23.0,21.2,93,30.37,10.0,NE,3.5,-,N/A,,Overcast,40,2013-01-15 01:35:00
8:55 PM,23.0,21.2,93,30.36,10.0,NNE,3.5,-,N/A,,Overcast,20,2013-01-15 01:55:00
9:35 PM,24.8,21.2,86,30.36,10.0,NNE,5.8,-,N/A,,Overcast,30,2013-01-15 02:35:00
9:55 PM,24.8,21.2,86,30.34,10.0,NE,5.8,-,N/A,,Overcast,40,2013-01-15 02:55:00
10:15 PM,24.8,21.2,86,30.34,10.0,NNE,5.8,-,N/A,,Overcast,30,2013-01-15 03:15:00
10:35 PM,24.8,21.2,86,30.34,10.0,NNE,5.8,-,N/A,,Overcast,30,2013-01-15 03:35:00
10:55 PM,24.8,21.2,86,30.35,10.0,North,5.8,-,N/A,,Overcast,10,2013-01-15 03:55:00
11:15 PM,24.8,21.2,86,30.34,10.0,NNE,5.8,-,N/A,,Overcast,20,2013-01-15 04:15:00
11:35 PM,24.8,21.2,86,30.35,10.0,North,8.1,-,N/A,,Overcast,10,2013-01-15 04:35:00
11:55 PM,24.8,21.2,86,30.35,10.0,NNE,4.6,-,N/A,,Overcast,20,2013-01-15 04:55:00